Regional Weather Roundup
Issued by NWS

Home | Current Version | Previous Version | Graphics & Text | Print | Product List | Glossary On
Versions: 1 2 3 4 5 6 7 8 9 10 11 12 13 14 15 16 17 18 19 20 21 22 23 24 25 26 27 28 29 30 31 32 33 34 35 36 37 38 39 40 41 42 43 44 45 46 47 48 49 50
000
ASUS43 KOAX 301202
RWRNE

WEATHER ROUNDUP FOR NEBRASKA
NATIONAL WEATHER SERVICE OMAHA NE
700 AM CDT TUE SEP 30 2014

NOTES: SATELLITE DATA IS BEING USED TO AUGMENT CLOUD COVER ABOVE
       12000 FEET.
       "FAIR" INDICATES FEW OR NO CLOUDS BELOW 12,000 FEET WITH NO
       SIGNIFICANT WEATHER AND/OR OBSTRUCTIONS TO VISIBILITY.

  * THESE STATIONS DO NOT REPORT WEATHER SUCH AS RAIN...SNOW OR FOG.

NEZ001>004-019>022-054>056-301300-
NEBRASKA PANHANDLE

CITY           SKY/WX    TMP DP  RH WIND       PRES   REMARKS
SCOTTSBLUFF    LGT RAIN  53  49  86 SW15G24   29.68S
6HR MIN TEMP:  50; 6HR MAX TEMP:  53; 6HR PCP:  0.94;

ALLIANCE       CLOUDY    50  48  93 SW18G28   29.64F
6HR MIN TEMP:  49; 6HR MAX TEMP:  57;

CHADRON        LGT RAIN  51  48  89 W35G47    29.47R
6HR MIN TEMP:  51; 6HR MAX TEMP:  57; 6HR PCP:  0.46;

KIMBALL        MOCLDY    48  46  91 SW10      29.77S
SIDNEY         MOCLDY    49  45  86 SW15      29.78S
6HR MIN TEMP:  49; 6HR MAX TEMP:  52; 6HR PCP:  0.18;

$$

NEZ057>060-069>072-079>082-301300-
SOUTHWEST NEBRASKA

CITY           SKY/WX    TMP DP  RH WIND       PRES   REMARKS
NORTH PLATTE   PTCLDY    54  48  80 SW10      29.76F
6HR MIN TEMP:  53; 6HR MAX TEMP:  60; 6HR PCP: TRACE;

IMPERIAL       PTCLDY    50  45  83 S7        29.80F
6HR MIN TEMP:  49; 6HR MAX TEMP:  58;

LEXINGTON      PTCLDY    58  54  86 SW9       29.79R
MCCOOK         PTCLDY    51  48  89 S5        29.82R
6HR MIN TEMP:  51; 6HR MAX TEMP:  62;

OGALLALA       PTCLDY    49  47  93 SW5       29.77S
$$

NEZ005>010-023>029-035>040-094-301300-
NORTH CENTRAL NEBRASKA

CITY           SKY/WX    TMP DP  RH WIND       PRES   REMARKS
VALENTINE      CLOUDY    58  51  78 S20G31    29.63S
6HR MIN TEMP:  58; 6HR MAX TEMP:  69; 6HR PCP:  0.06;

AINSWORTH      CLEAR     60  55  82 S18G24    29.66F
BROKEN BOW     MOCLDY    62  55  77 S12G22    29.75R
6HR MIN TEMP:  62; 6HR MAX TEMP:  69; 6HR PCP:  0.01;

O`NEILL        RAIN      63  61  94 SE18      29.74S
ORD            CLOUDY    64  58  80 S15G23    29.73S
6HR MIN TEMP:  64; 6HR MAX TEMP:  68; 6HR PCP:  0.01;

THEDFORD       PTCLDY    55  49  78 SW14G21   29.71S
$$

NEZ041-046>049-061>064-073>077-083>087-301300-
SOUTH CENTRAL NEBRASKA

CITY           SKY/WX    TMP DP  RH WIND       PRES   REMARKS
GRAND ISLAND   CLOUDY    65  59  81 S14       29.80F
6HR MIN TEMP:  64; 6HR MAX TEMP:  68; 6HR PCP:  0.02;

AURORA         CLOUDY    64  60  87 S9G18     29.81S
HASTINGS       CLOUDY    64  56  75 S9        29.81R
6HR MIN TEMP:  64; 6HR MAX TEMP:  69; 6HR PCP:  0.01;

HEBRON         CLOUDY    66  57  72 S13       29.84S
HOLDREGE       PTCLDY    61  56  84 SW12G17   29.81R
KEARNEY *      CLOUDY    64  55  72 S18G25    29.79R
YORK           LGT RAIN  63  61  94 S13       29.84F
$$

NEZ011>018-030>034-042>045-301300-
NORTHEAST NEBRASKA

CITY           SKY/WX    TMP DP  RH WIND       PRES   REMARKS
NORFOLK        LGT RAIN  63  59  87 SE13      29.83S
6HR MIN TEMP:  61; 6HR MAX TEMP:  63; 6HR PCP: TRACE;

ALBION         LGT RAIN  64  59  82 S20       29.79S
BLAIR          CLOUDY    63  59  86 E9        29.87S
COLUMBUS *     CLOUDY    66  57  72 S7        29.85R
FREMONT        CLOUDY    64  58  81 SE7       29.86S
TEKAMAH        CLOUDY    62  58  86 SE8       29.87F
6HR MIN TEMP:  56; 6HR MAX TEMP:  63;

WAYNE          CLOUDY    60  58  92 SE13      29.84F
$$

NEZ050>053-065>068-078-088>093-301300-
SOUTHEAST NEBRASKA

CITY           SKY/WX    TMP DP  RH WIND       PRES   REMARKS
LINCOLN        MOCLDY    67  59  75 S12       29.85S
6HR MIN TEMP:  64; 6HR MAX TEMP:  68;

OMAHA EPPLEY   CLOUDY    64  58  80 SE7       29.88F
6HR MIN TEMP:  63; 6HR MAX TEMP:  67;

BEATRICE       MOCLDY    67  58  72 S12G17    29.86S
FALLS CITY     MOCLDY    60  58  92 SE6       29.89F
6HR MIN TEMP:  59; 6HR MAX TEMP:  64;

NEBRASKA CITY  MOCLDY    63  57  82 S6        29.88F
PLATTSMOUTH      N/A     61  56  82 SE6       29.89S
$$

NEZ044-045-051>053-067-301300-
OMAHA AREA

CITY           SKY/WX    TMP DP  RH WIND       PRES   REMARKS
OMAHA EPPLEY   CLOUDY    64  58  80 SE7       29.88F
6HR MIN TEMP:  63; 6HR MAX TEMP:  67;

BLAIR          CLOUDY    63  59  86 E9        29.87S
FREMONT        CLOUDY    64  58  81 SE7       29.86S
MILLARD        CLOUDY    64  58  81 SE6       29.87S
OFFUTT AFB     CLOUDY    62  62  99 E6        29.88F
PLATTSMOUTH      N/A     61  56  82 SE6       29.89S
WAHOO          FAIR      62  56  83 SE7       29.85S
$$



USA.gov is the U.S. government's official web portal to all federal, state and local government web resources and services.